RH
94 72 46 63 70 90 93 80 82 74 63 58 44 40 29 28 28 26 28 23 35 31 26 24 21 16 13 14 30 36 63 79 93 95 97 96 96 95 96 96 97 97 97 96
72 56 71 66 71 95 76 65 79 84 72 55 48 43 38 36 33 30 28 23 22 36 26 25 21 19 12 9 15 29 27 42 70 87 92 93 96 94 95 96 96 96 96 97
72 85 77 60 89 100 85 61 79 96 77 54 50 43 44 41 40 37 32 20 28 32 31 32 23 21 15 7 7 14 20 20 64 81 82 95 96 89 95 90 88 96 97 98
76 94 75 72 95 100 94 74 84 89 87 78 53 40 35 43 44 42 36 26 28 32 39 35 26 23 16 9 7 9 12 29 14 58 79 89 92 97 93 98 99 98 100 100
96 100 87 80 95 100 100 76 91 92 81 71 52 43 46 41 46 44 36 27 32 31 46 44 33 22 17 10 7 7 7 7 20 14 18 28 30 47 59 80 95 94 78 71
100 97 90 80 100 100 97 86 91 85 78 54 54 51 44 53 49 46 35 29 25 25 48 45 45 32 17 12 11 9 8 7 7 7 9 10 10 11 21 30 40 39 34 44
100 99 96 92 98 97 95 88 95 84 69 55 66 64 52 59 65 53 48 31 18 22 28 46 47 50 44 23 20 21 24 20 12 9 8 7 8 8 8 8 10 10 10 11
98 95 98 99 100 100 99 94 91 90 81 77 69 74 58 63 68 56 54 32 19 22 24 41 47 50 50 45 28 25 24 25 22 21 24 29 24 21 15 14 14 14 15 19
98 96 97 96 98 96 95 82 94 99 91 84 81 73 68 58 62 70 59 50 23 19 27 36 52 48 51 42 37 31 24 22 23 22 24 19 21 28 33 28 25 24 21 23
98 98 98 98 96 95 97 97 92 91 91 93 84 73 74 64 65 79 70 56 43 26 27 36 36 42 54 40 45 50 39 28 27 25 27 27 32 25 21 24 30 32 33 37
61 98 98 98 91 96 96 98 96 95 95 92 100 98 61 72 69 67 72 60 48 30 27 39 42 50 51 42 47 52 45 32 34 28 27 32 37 38 40 48 57 49 64 87
68 31 88 83 77 87 94 93 94 100 100 95 84 96 82 68 66 65 75 59 49 28 30 44 55 64 48 50 52 59 49 41 44 32 27 29 32 36 31 42 52 59 65 64
76 72 17 19 30 48 78 74 80 82 82 83 81 86 69 75 76 64 69 82 55 38 39 49 60 58 68 55 45 48 54 61 45 34 32 37 46 44 43 47 57 61 58 47
28 46 74 26 23 25 28 55 73 72 76 80 76 76 66 70 64 58 52 73 84 73 58 40 44 51 60 89 67 64 66 66 49 42 44 52 49 50 55 69 64 48 42 39
64 23 25 48 53 32 32 48 78 95 72 56 58 53 49 44 40 45 41 52 66 92 95 84 66 57 64 88 83 72 76 69 66 68 69 66 63 57 51 56 52 60 52 37
44 100 91 39 44 44 36 31 26 26 25 27 32 30 33 27 25 23 25 35 48 62 88 98 94 79 57 56 89 85 89 88 87 98 85 80 69 67 69 56 52 55 56 41
48 30 38 60 59 31 20 27 37 42 44 40 35 30 18 16 15 18 25 28 39 51 62 74 92 97 89 63 66 66 62 81 87 96 73 62 55 71 83 72 66 69 67 43
55 100 92 84 88 36 22 25 33 47 48 32 19 16 13 10 10 13 18 11 10 22 50 60 65 82 96 86 75 75 68 68 77 92 78 79 71 66 80 86 76 73 65 44
34 42 50 56 45 34 43 71 68 50 57 54 32 23 22 12 9 21 21 10 14 12 10 15 35 62 80 95 97 90 82 72 72 74 64 80 72 84 98 98 90 75 81 64
31 22 18 14 14 12 32 72 69 27 38 41 39 41 42 45 44 38 37 27 22 22 25 26 13 23 51 92 97 98 94 90 83 90 97 100 88 96 96 86 77 79 83 65
28 23 22 23 18 15 25 35 31 28 18 21 19 16 15 15 16 16 18 25 28 29 34 39 46 21 23 55 84 91 99 91 80 77 94 98 97 96 99 94 81 48 67 83
45 42 31 26 20 26 31 30 27 30 20 20 21 18 12 10 9 7 7 7 9 19 27 33 36 45 30 26 61 72 90 94 98 97 98 98 95 99 89 91 89 100 99 97
47 40 48 35 36 30 29 33 30 29 24 23 24 25 17 13 14 12 11 7 7 8 12 30 30 44 47 59 51 75 88 88 96 96 98 95 94 93 95 99 100 100 100 99
53 49 38 38 40 57 41 24 25 27 28 30 31 28 25 18 15 14 34 52 11 7 12 36 69 51 46 50 66 86 100 100 100 100 94 92 100 100 100 99 98 90 88 91
59 47 48 46 51 57 60 42 37 37 34 37 36 31 27 27 21 15 16 68 92 45 45 53 67 61 78 66 73 98 100 100 99 94 100 100 100 100 98 97 100 99 94 93
58 56 50 48 46 52 53 42 44 46 44 43 44 42 36 33 28 20 19 18 69 99 100 89 74 82 97 91 91 94 100 100 100 100 100 100 100 100 79 72 89 92 83 85
Wind_Speed
37 37 32 23 26 25 24 23 23 26 25 21 17 13 14 9 12 13 13 11 14 18 16 13 12 13 12 13 10 8 10 23 10 10 9 10 13 20 29 25 31 24 19 19
42 40 27 33 31 29 28 27 24 25 25 23 21 13 12 13 14 13 11 14 13 18 18 13 11 10 11 11 10 7 7 7 9 10 17 10 7 9 11 19 23 22 20 19
44 35 32 36 33 31 27 26 26 24 26 27 22 17 10 14 11 10 12 11 12 16 16 13 10 10 8 7 10 5 6 8 7 17 16 17 14 14 10 15 19 21 18 19
51 41 39 40 36 31 29 27 30 29 29 25 25 17 7 12 13 13 13 12 12 15 15 11 8 9 6 5 5 5 3 4 4 2 8 15 15 14 16 17 19 21 20 21
39 42 40 39 32 34 27 34 32 33 31 30 25 24 11 10 12 16 15 14 15 14 15 12 7 9 7 5 3 5 5 2 3 2 4 5 6 8 8 18 24 21 24 22
44 43 42 43 36 37 37 36 36 34 35 32 25 26 14 8 11 15 14 15 19 17 17 16 11 8 8 7 4 6 8 7 4 3 6 5 5 8 10 11 14 16 17 16
39 41 43 43 41 38 40 38 36 36 41 33 32 29 15 12 12 13 17 15 15 20 16 15 15 9 9 10 8 7 5 5 6 7 6 8 9 10 10 10 11 13 13 16
36 38 42 43 41 37 34 33 37 40 41 33 35 36 17 16 14 14 14 16 14 18 18 14 18 13 11 10 11 11 10 8 6 6 8 10 10 10 12 13 13 14 16 16
33 36 39 43 41 41 40 42 38 40 41 39 38 37 25 19 16 15 16 15 16 17 20 17 20 15 15 12 12 11 12 11 12 12 13 12 13 15 15 14 15 15 16 17
32 35 32 29 33 37 40 42 42 44 44 42 39 36 31 18 19 17 15 16 17 19 22 22 22 19 17 15 13 13 15 18 16 14 15 14 13 13 16 18 20 20 19 19
34 31 34 31 33 31 33 37 39 43 43 41 33 28 32 26 22 22 18 20 20 22 25 27 23 21 19 22 19 19 18 17 18 18 17 18 19 19 18 17 17 20 20 22
31 38 33 35 35 33 32 34 34 38 42 40 39 32 37 29 24 24 19 17 20 22 25 29 28 26 23 25 24 21 22 23 23 23 19 19 18 18 21 22 21 22 24 25
31 34 38 41 39 38 38 37 36 37 36 39 38 38 39 33 29 25 22 21 23 25 27 31 31 26 28 28 27 24 23 24 25 25 24 24 23 23 24 27 28 29 28 27
34 34 35 38 42 42 40 40 40 38 38 38 40 41 39 36 33 30 30 25 25 27 27 32 36 34 32 34 33 32 31 29 28 29 28 27 26 24 27 30 31 29 27 27
33 38 38 37 38 39 40 40 41 40 40 42 42 45 43 43 40 34 35 34 31 29 29 32 32 35 34 31 33 34 34 33 32 32 31 31 33 32 29 29 28 28 29 31
43 37 31 35 35 32 36 39 42 44 43 44 43 45 44 45 44 42 36 37 37 33 30 30 32 37 37 38 38 38 38 37 35 35 37 36 36 36 33 32 34 35 36 37
43 42 41 39 37 37 39 35 34 35 36 38 41 45 49 48 49 46 44 39 37 37 36 33 30 36 37 39 39 42 42 42 44 43 44 41 39 37 37 39 39 37 37 37
46 37 38 37 32 42 42 35 36 35 35 40 45 47 49 51 51 50 47 48 45 39 38 39 38 37 35 39 43 41 43 45 47 48 48 41 40 39 40 42 40 41 41 40
48 45 44 42 44 44 41 37 32 34 35 37 42 45 46 50 52 50 51 54 50 50 46 43 43 41 39 35 41 45 45 46 47 47 46 46 43 41 45 42 41 43 44 45
36 37 37 38 41 41 39 31 28 31 34 41 39 40 43 45 48 51 50 54 53 50 47 45 44 43 43 38 39 42 48 45 44 46 47 47 42 41 43 44 43 42 43 43
26 25 21 19 20 22 21 24 23 22 23 22 23 27 32 37 44 47 45 49 55 52 47 45 37 39 43 45 42 41 44 42 42 46 46 46 46 44 45 47 48 44 41 42
24 21 19 17 17 16 17 19 21 19 18 18 18 19 20 23 29 37 40 39 43 50 51 44 41 40 41 45 41 45 45 44 44 44 45 49 51 49 47 50 50 56 59 45
24 20 18 19 19 23 23 22 21 21 21 23 24 24 24 23 25 31 35 39 43 44 50 50 45 42 46 46 44 47 49 48 46 48 47 48 48 50 51 53 57 56 60 54
23 23 21 21 23 24 26 25 26 28 29 29 28 28 30 29 31 32 34 36 39 41 46 51 44 43 46 48 48 50 53 52 49 51 50 48 53 54 56 57 55 50 50 54
22 22 23 24 26 27 28 29 30 33 34 36 36 35 35 36 36 34 36 37 33 38 42 42 42 41 43 45 44 47 55 53 48 47 51 53 57 60 58 53 55 58 57 59
24 24 25 26 27 29 31 33 35 37 39 40 41 42 42 42 41 42 42 45 39 40 23 35 37 40 45 44 45 50 50 46 45 46 47 52 55 56 53 52 52 55 55 57
Wind_Direction
223 226 225 235 239 237 243 243 243 250 255 258 257 264 272 288 278 280 286 291 280 285 282 293 300 310 320 331 354 12 256 253 212 273 190 186 188 192 197 200 205 213 212 219
221 224 223 230 229 231 236 241 246 253 253 252 252 247 266 284 277 282 287 290 280 272 276 285 293 300 310 317 323 347 346 329 249 228 212 197 192 201 203 213 214 223 226 230
225 224 221 226 229 229 235 240 245 250 248 252 252 256 257 275 282 291 280 278 278 262 264 280 291 299 300 301 304 329 346 344 340 227 234 232 226 244 223 227 234 229 232 243
224 218 217 226 226 224 227 235 241 245 250 256 254 258 249 274 284 287 270 271 267 260 260 270 286 288 288 291 302 314 0 344 357 354 245 243 249 240 250 239 227 232 248 250
227 225 219 228 230 225 221 231 237 241 249 247 253 259 258 261 272 277 275 277 267 258 253 263 275 281 276 268 285 304 310 340 328 297 202 205 229 232 236 231 228 240 248 248
224 225 216 221 223 223 223 229 235 241 245 245 247 256 248 254 264 275 267 278 273 257 246 262 260 271 280 273 270 282 293 300 279 260 272 249 228 244 228 209 214 220 228 231
222 219 216 220 222 225 223 226 234 240 246 250 254 257 249 244 258 263 275 273 273 258 249 247 252 244 267 270 274 270 270 281 294 288 257 252 254 235 233 239 237 237 239 238
226 228 223 218 223 226 228 229 238 240 248 256 252 259 240 242 247 248 257 266 268 256 251 245 244 241 244 258 269 270 266 258 256 270 281 269 244 248 244 234 231 228 228 231
223 228 222 220 222 220 220 224 230 240 245 248 252 257 253 239 240 247 252 257 264 257 250 250 234 245 249 242 252 268 274 264 277 284 270 262 255 258 256 246 246 243 241 245
234 220 218 222 224 220 224 224 225 234 239 244 251 253 260 252 239 247 247 251 246 254 246 246 241 241 253 235 242 266 273 269 277 278 268 264 273 264 255 253 252 250 256 263
241 235 223 222 225 226 226 228 230 235 239 243 248 255 256 246 247 252 241 237 242 246 231 234 241 244 245 244 256 261 261 260 271 271 260 264 271 274 275 268 264 259 263 273
226 234 235 228 237 236 235 236 231 234 242 243 248 246 258 257 250 254 254 234 240 242 232 228 236 241 242 244 246 261 256 261 266 261 260 256 265 277 281 274 271 273 280 281
234 225 226 232 231 234 235 236 239 243 245 249 250 254 251 258 266 263 258 246 236 236 237 234 232 235 239 241 237 246 251 263 260 258 254 258 267 276 276 273 275 278 278 278
228 235 230 229 233 233 235 238 240 242 247 252 254 258 262 264 262 260 264 249 237 240 245 246 244 241 238 240 241 243 252 251 253 256 261 261 268 271 267 265 268 271 273 275
232 233 233 234 235 237 238 242 246 245 248 254 259 265 267 269 265 260 262 263 248 238 240 246 249 248 245 244 241 250 251 247 249 253 259 263 264 265 268 266 260 270 282 282
225 222 234 236 234 234 234 240 245 248 251 255 258 259 263 263 264 265 254 255 257 252 239 237 247 248 252 248 242 248 250 248 250 255 263 261 262 265 262 259 259 267 278 282
231 235 234 232 239 242 238 237 242 246 251 256 258 260 260 263 264 266 267 259 255 259 254 249 242 245 241 248 247 247 252 252 252 257 266 264 260 263 263 261 266 273 278 276
231 229 237 242 241 242 246 248 248 251 257 260 259 260 261 263 266 272 276 272 267 256 259 262 259 251 251 244 243 243 246 248 254 256 262 260 259 262 262 264 268 271 275 273
239 237 240 243 246 247 248 249 255 255 256 260 260 263 267 267 269 272 274 274 275 275 268 261 262 262 255 253 245 242 242 245 251 254 257 257 260 260 264 265 267 271 271 274
232 236 239 245 247 251 247 247 250 255 249 254 259 263 264 267 268 270 274 272 273 275 276 275 262 260 260 250 248 245 249 247 243 247 252 257 257 256 263 267 267 266 268 268
221 225 228 229 231 237 234 232 232 233 246 246 255 262 267 271 272 271 271 273 272 273 275 275 265 260 258 255 253 251 249 242 242 246 246 248 253 256 260 264 272 274 264 266
213 212 210 204 202 210 217 222 226 229 235 247 256 263 269 276 278 275 274 269 266 266 265 265 264 253 247 253 248 253 254 250 241 242 247 249 249 253 260 265 270 270 265 266
212 214 219 218 223 236 236 239 237 246 252 260 267 274 275 277 292 286 276 272 269 266 263 261 260 252 244 240 241 241 245 248 255 252 251 249 250 252 257 261 263 276 275 268
216 221 224 230 235 246 251 251 259 265 269 272 274 278 278 282 288 293 288 279 266 263 260 256 255 249 248 241 243 243 242 247 249 251 255 257 260 251 255 262 263 269 272 271
229 230 235 240 248 253 259 261 264 268 272 275 276 278 278 281 284 295 280 278 281 265 258 259 256 248 245 243 249 242 242 247 248 251 251 253 255 256 259 265 265 268 272 271
235 241 245 248 251 257 261 263 265 268 271 274 276 278 278 280 282 284 291 292 282 257 261 242 252 243 241 244 248 242 236 241 246 249 252 255 258 259 260 261 261 263 270 279